OpenBCM V1.13 (Linux)

Packet Radio Mailbox

DB0FHN

[JN59NK Nuernberg]

 Login: GUEST





  
CX2SA  > KEP      29.10.14 04:24l 73 Lines 2979 Bytes #999 (0) @ WW
BID : ARLK084
Read: GUEST DK3UZ DK7NR
Subj: ARLK084 Keplerian data
Path: DB0FHN<HB9EAS<DB0ZAV<UA6ADV<GB7CIP<I0OJJ<IQ5KG<IK1NHL<CX2SA
Sent: 141028/2043Z @:CX2SA.SAL.URY.SOAM #:11831 [Salto] FBB7.00e $:ARLK084
From: CX2SA@CX2SA.SAL.URY.SOAM
To  : KEP@ARL


ZCZC SK84
QST de W1AW
Keplerian Bulletin 84  ARLK084
From ARRL Headquarters
Newington, CT  October 28, 2014
To all radio amateurs

SB KEP ARL ARLK084
ARLK084 Keplerian data

Special thanks to Space-Track.org for the following Keplerian data.

Decode 2-line elsets with the following key:
1 AAAAAU 00  0  0 BBBBB.BBBBBBBB  .CCCCCCCC  00000-0  00000-0 0  DDDZ
2 AAAAA EEE.EEEE FFF.FFFF GGGGGGG HHH.HHHH III.IIII JJ.JJJJJJJJKKKKKZ
KEY: A-CATALOGNUM B-EPOCHTIME C-DECAY D-ELSETNUM E-INCLINATION F-RAAN
G-ECCENTRICITY H-ARGPERIGEE I-MNANOM J-MNMOTION K-ORBITNUM Z-CHECKSUM

AO-07
1 07530U 74089B   14300.46368545  .00000002  00000-0  28666-3 0  1054
2 07530 101.4898 278.0167 0012243 038.1278 080.2330 12.53608243828097
AO-16
1 20439U 90005D   14300.41444150  .00000333  00000-0  13916-3 0  1582
2 20439 098.5176 235.3187 0011945 126.2034 346.2626 14.32412575293415
FO-29
1 24278U 96046B   14301.25468992  .00000051  00000-0  90607-4 0  5046
2 24278 098.5163 296.7550 0349580 312.4805 110.0144 13.53033939898660
ISS
1 25544U 98067A   14301.57885083  .00007989  00000-0  14430-3 0  3175
2 25544 051.6479 158.3557 0003625 328.9431 052.7021 15.50691486912020
NO-44
1 26931U 01043C   14300.42998057  .00000346  00000-0  16540-3 0  7384
2 26931 067.0532 057.4295 0007563 273.6393 086.3843 14.30176603682517
SO-50
1 27607U 02058C   14301.07386391  .00002063  00000-0  32347-3 0  5576
2 27607 064.5563 187.1869 0063299 336.1845 023.6330 14.74062972637063
CO-55
1 27844U 03031E   14300.03555390  .00000526  00000-0  25991-3 0   566
2 27844 098.6989 306.9150 0008780 251.3096 174.7461 14.21594164587310
RS-22
1 27939U 03042A   14301.07179216  .00001577  00000-0  29930-3 0  9896
2 27939 097.8216 108.7218 0013980 049.9425 064.3923 14.65449721592181
CO-58
1 28895U 05043F   14300.09606896  .00001849  00000-0  37588-3 0  9082
2 28895 097.8251 135.0806 0016298 317.1134 042.8796 14.62131279479524
CO-65
1 32785U 08021C   14301.13110350  .00004264  00000-0  49580-3 0  1019
2 32785 097.6828 347.9702 0015150 110.4895 305.5645 14.85748733351769
COMPASS 1
1 32787U 08021E   14300.15020576  .00006838  00000-0  73648-3 0   843
2 32787 097.6856 349.8443 0015194 104.7139 255.5764 14.88680962351814
DO-64
1 32789U 08021G   14301.15606368  .00015908  00000-0  14514-2 0  1176
2 32789 097.7057 359.8258 0012674 084.0451 329.1412 14.95107563352359
RS-30
1 32953U 08025A   14301.06398125  .00000060  00000-0  36165-3 0  4164
2 32953 082.4993 118.5982 0018545 225.1248 271.7191 12.43051924291764
KKS-1
1 33499U 09002H   14301.04582509  .00002864  00000-0  44633-3 0  5046
2 33499 098.2067 070.1147 0009192 197.0861 217.9185 14.73716576309412
AO-73
1 39445U 13066AF  14299.18408445  .00005384  00000-0  71600-3 0  2956
2 39445 097.7623 005.3195 0061766 176.5630 183.6019 14.78790902 48397

Keplerian bulletins are transmitted twice weekly from W1AW.  The
next scheduled transmission of these data will be October 31, 2014,
at 2230z on Baudot and BPSK31.
NNNN


Read previous mail | Read next mail


 14.07.2026 18:58:25lGo back Go up